Mikoolu, Australia

1:13 AM AEST on June 25, 2017 (GMT +1000)
Mikoolu

Weather History for 94365 - December, 2013

Change the Weather History Date:

Saturday, December 28, 2013

  Actual Average Record
Temperature  
Mean Temperature 80 °F -  
Max Temperature 94 °F - - ()
Min Temperature 67 °F - - ()
Cooling Degree Days 16    
Growing Degree Days 30 (Base 50)    
Moisture  
Dew Point 68 °F    
Average Humidity 67    
Maximum Humidity 94    
Minimum Humidity 31    
Precipitation  
Precipitation 0.00 in - - ()
Sea Level Pressure  
Sea Level Pressure 29.79 in    
Wind  
Wind Speed 3 mph ()    
Max Wind Speed 12 mph    
Max Gust Speed -    
Visibility 7.2 miles    
Events      
T = Trace of Precipitation, MM = Missing Value Source: Averaged Metar Reports

Daily Weather History Graph

Daily Weather History Graph

Search for Another Location

Airport or City:

Trip Planner

Search our weather history database for the weather conditions in past years. The results will help you decide how hot, cold, wet, or windy it might be!

Date:

Astronomy

Dec. 28, 2013 Rise Set
Actual Time 5:26 AM AEST 6:48 PM AEST
Civil Twilight 5:01 AM AEST 7:12 PM AEST
Nautical Twilight 4:32 AM AEST 7:42 PM AEST
Astronomical Twilight 4:01 AM AEST 8:12 PM AEST
Moon 1:17 AM AEST (12/28) 2:23 PM AEST (12/28)
Length of Visible Light 14h 11m
Length of Day
13h 22m
Waning Crescent, 25% of the Moon is Illuminated
Dec 28
Waning Crescent
Jan 1
New
Jan 8
First Quarter
Jan 16
Full
Jan 24
Last Quarter

Hourly Weather History & Observations

Time (AEST) Temp. Heat Index Dew Point Humidity Pressure Visibility Wind Dir Wind Speed Gust Speed Precip Events Conditions
12:00 AM 73 °F - 68 °F 80% 29.81 in - Calm Calm - -  
12:00 AM 73.4 °F - 68.0 °F 83% 29.80 in 6.2 mi Calm Calm - N/A   Unknown
1:00 AM 71.6 °F - 68.0 °F 88% 29.80 in 6.2 mi Calm Calm - N/A   Unknown
2:00 AM 69.8 °F - 68.0 °F 94% 29.77 in 6.2 mi Calm Calm - N/A   Unknown
3:00 AM 70 °F - 67 °F 88% 29.77 in - Calm Calm - -  
3:00 AM 69.8 °F - 68.0 °F 94% 29.77 in 6.2 mi Calm Calm - N/A   Unknown
4:00 AM 69.8 °F - 66.2 °F 88% 29.77 in 6.2 mi Calm Calm - N/A   Unknown
5:00 AM 69.8 °F - 68.0 °F 94% 29.77 in 6.2 mi Calm Calm - N/A   Unknown
6:00 AM 70 °F - 68 °F 93% 29.80 in - West 1.2 mph - -  
6:00 AM 69.8 °F - 68.0 °F 94% 29.80 in 6.2 mi West 1.2 mph - N/A   Unknown
7:00 AM 77.0 °F - 69.8 °F 78% 29.83 in 6.2 mi Calm Calm - N/A   Unknown
8:00 AM 80.6 °F 83.9 °F 69.8 °F 70% 29.83 in 6.2 mi North 5.8 mph - N/A   Unknown
9:00 AM 84 °F - 69 °F 52% 29.85 in 19 mi NW 6.9 mph - -   Partly Cloudy
9:00 AM 84.2 °F 88.4 °F 69.8 °F 62% 29.83 in 6.2 mi NW 6.9 mph - N/A   Mostly Cloudy
10:00 AM 89.6 °F 92.2 °F 66.2 °F 46% 29.83 in 6.2 mi ENE 6.9 mph - N/A   Scattered Clouds
11:00 AM 89.6 °F 91.1 °F 64.4 °F 43% 29.83 in 6.2 mi NNW 6.9 mph - N/A   Unknown
12:00 PM 91 °F - 69 °F 38% 29.81 in - ESE 8.1 mph - -  
12:00 PM 91.4 °F 95.4 °F 68.0 °F 46% 29.80 in 6.2 mi ESE 8.1 mph - N/A   Unknown
1:00 PM 93.2 °F 98.8 °F 69.8 °F 46% 29.77 in 6.2 mi East 10.4 mph - N/A   Unknown
2:00 PM 93.2 °F 97.7 °F 68.0 °F 44% 29.74 in 6.2 mi East 11.5 mph - N/A   Unknown
3:00 PM 94 °F - 67 °F 31% 29.74 in 19 mi NE 8.1 mph - -   Partly Cloudy
3:00 PM 93.2 °F 96.2 °F 66.2 °F 41% 29.74 in 6.2 mi NNE 9.2 mph - N/A   Scattered Clouds
4:00 PM 91.4 °F 94.0 °F 66.2 °F 43% 29.71 in 6.2 mi NE 10.4 mph - N/A   Mostly Cloudy
5:00 PM 89.6 °F 93.4 °F 68.0 °F 49% 29.74 in 6.2 mi NNE 11.5 mph - N/A   Unknown
6:00 PM 85 °F - 68 °F 48% 29.76 in - North 9.2 mph - -  
6:00 PM 84.2 °F 87.3 °F 68.0 °F 58% 29.74 in 6.2 mi North 9.2 mph - N/A   Unknown
7:00 PM 80.6 °F 83.2 °F 68.0 °F 65% 29.77 in 6.2 mi North 8.1 mph - N/A   Unknown
8:00 PM 78.8 °F - 69.8 °F 74% 29.80 in 6.2 mi NNW 3.5 mph - N/A   Unknown
9:00 PM 77 °F - 70 °F 72% 29.82 in - North 3.5 mph - -  
9:00 PM 77.0 °F - 69.8 °F 78% 29.80 in 6.2 mi North 3.5 mph - N/A   Unknown
10:00 PM 75.2 °F - 68.0 °F 78% 29.83 in 6.2 mi Calm Calm - N/A   Unknown
11:00 PM 73.4 °F - 68.0 °F 83% 29.83 in 6.2 mi Calm Calm - N/A   Unknown